COSMOS 1691 DEB, 18282

Orbit data source: Space-Track

COSMOS 1691 DEB, 18282 is space debris in LEO originally from a launch on Wed, 09 Oct 1985 UTC launched from the Plesetsk Missile And Space Complex (PKMTR). Debris objects in space refer to the collection of defunct objects orbiting the Earth. Examples of debris include non-operational satellites, rocket bodies, and fragments generated from explosions, collisions, or faulty payload assembly.

Loading next visibility...
Identifier
18282, 1985-094T
Orbit
LEO
Country
Flag of CISCIS
Related business
Manufacturer
Unknown
Mission
Spacecraft
Bus & Motor
Unknown
Mass
Unknown
Launch date (UTC)
1985-10-09 (41 years ago)
Launch vehicle
Unknown
Launch site
Plesetsk Missile And Space Complex (PKMTR)
Object type
Payload
Rocket body
Debris
Shape & HBR
Unknown shape, 0.1 m
Radar Cross Section
Medium (>0.1 m² and <1 m²)

Expand to show TLE details & history
Last TLE update: 3 days ago

TLE from 3 days ago
0 COSMOS 1691 DEB
1 18282U 85094T   26170.48253321  .00000569  00000-0  24913-2 0  9992
2 18282  82.6239 170.8891 0023250 107.8604  46.4793 12.78773687886411
Epoch: 2026-06-19T11:34Z
TLE epoch observation values (Epoch: 2026-06-19T11:34:50.869Z)
Latitude
25.26893°
Longitude
-94.01956°
Altitude
1,336.993 km
Speed
7.197 km/s
True Right ascension
23h 09m 36s
True Declination
25° 08' 47"
Sunlit
Object was in daylight at epoch
Visualization orbit readout
Latitude
Unknown
Longitude
Unknown
Altitude
Unknown
Speed
Unknown
Apparent Right ascension
Unknown
Apparent Declination
Unknown
Sunlit
N/A
Visualization observer readout
Local Sidereal Time
23:20:10
Azimuth
Unknown
Elevation
Unknown
Doppler factor
Unknown
Orbital elements
Apogee altitude
1,361.653 km
Perigee altitude
1,325.747 km
Semi-major axis
7,721.837 km
Eccentricity
0.00233
Inclination
82.6239°
RAAN
170.8891°
Arg. of periapsis
107.8604°
True anomaly
46.67288°
Mean anomaly
46.4793°
Eccentric anomaly
46.57605°
Mean motion
3.19862 °/min
Orbital period
112.55 mins
BSTAR
0.0024913
Loading maneuver chart data...
Computing Atmospheric mass density...
Loading historical data...
Loading historical data...
Loading historical data...
Loading historical data...
Loading historical data...
Loading historical data...
Loading historical data...

Documentation

Showing up to 5 results
|